Time,TemperatureF,DewpointF,PressureIn,WindDirection,WindDirectionDegrees,WindSpeedMPH,WindSpeedGustMPH,Humidity,HourlyPrecipIn,Conditions,Clouds,dailyrainin,SoftwareType,DateUTC
2013-05-21 00:02:00,38.0,31.0,-100.00,West,265,12.0,16.0,73,0.00,,,-99.99,,2013-05-21 06:02:00,
2013-05-21 00:12:00,38.0,31.0,-100.00,West,265,12.0,16.0,74,0.00,,,-99.99,,2013-05-21 06:12:00,
2013-05-21 00:21:00,38.0,31.0,-100.00,West,260,13.0,18.0,74,0.00,,,-99.99,,2013-05-21 06:21:00,
2013-05-21 00:32:00,38.0,31.0,-100.00,West,270,12.0,17.0,74,0.00,,,-99.99,,2013-05-21 06:32:00,
2013-05-21 00:41:00,38.0,31.0,-100.00,West,270,12.0,18.0,75,0.00,,,-99.99,,2013-05-21 06:41:00,
2013-05-21 00:51:00,38.0,31.0,-100.00,West,260,14.0,18.0,75,0.00,,,-99.99,,2013-05-21 06:51:00,
2013-05-21 01:01:00,38.0,31.0,-100.00,West,260,14.0,21.0,76,0.00,,,-99.99,,2013-05-21 07:01:00,
2013-05-21 01:11:00,38.0,32.0,-100.00,West,260,12.0,21.0,77,0.00,,,-99.99,,2013-05-21 07:11:00,
2013-05-21 01:22:00,38.0,32.0,-100.00,West,270,12.0,15.0,78,0.00,,,-99.99,,2013-05-21 07:22:00,
2013-05-21 01:31:00,38.0,32.0,-100.00,WSW,255,14.0,19.0,78,0.00,,,-99.99,,2013-05-21 07:31:00,
2013-05-21 01:41:00,38.0,32.0,-100.00,WSW,245,14.0,23.0,80,0.00,,,-99.99,,2013-05-21 07:41:00,
2013-05-21 01:51:00,37.0,32.0,-100.00,WSW,245,15.0,19.0,80,0.00,,,-99.99,,2013-05-21 07:51:00,
2013-05-21 02:02:00,37.0,32.0,-100.00,WSW,250,16.0,22.0,79,0.00,,,-99.99,,2013-05-21 08:02:00,
2013-05-21 02:11:00,36.0,31.0,-100.00,WSW,240,14.0,18.0,79,0.00,,,-99.99,,2013-05-21 08:11:00,
2013-05-21 02:21:00,36.0,30.0,-100.00,WSW,245,14.0,19.0,78,0.00,,,-99.99,,2013-05-21 08:21:00,
2013-05-21 02:31:00,36.0,30.0,-100.00,West,260,14.0,19.0,78,0.00,,,-99.99,,2013-05-21 08:31:00,
2013-05-21 02:41:00,36.0,30.0,-100.00,WSW,250,14.0,19.0,76,0.00,,,-99.99,,2013-05-21 08:41:00,
2013-05-21 02:52:00,36.0,30.0,-100.00,WSW,250,12.0,19.0,77,0.00,,,-99.99,,2013-05-21 08:52:00,
2013-05-21 03:01:00,36.0,29.0,-100.00,WSW,255,14.0,17.0,77,0.00,,,-99.99,,2013-05-21 09:01:00,
2013-05-21 03:11:00,35.0,29.0,-100.00,West,265,12.0,17.0,78,0.00,,,-99.99,,2013-05-21 09:11:00,
2013-05-21 03:21:00,35.0,29.0,-100.00,WSW,255,13.0,18.0,77,0.00,,,-99.99,,2013-05-21 09:21:00,
2013-05-21 03:32:00,35.0,29.0,-100.00,West,260,13.0,19.0,77,0.00,,,-99.99,,2013-05-21 09:32:00,
2013-05-21 03:42:00,35.0,28.0,-100.00,West,265,13.0,19.0,75,0.00,,,-99.99,,2013-05-21 09:42:00,
2013-05-21 03:52:00,35.0,28.0,-100.00,West,275,11.0,17.0,74,0.00,,,-99.99,,2013-05-21 09:52:00,
2013-05-21 04:02:00,35.0,27.0,-100.00,WSW,250,12.0,17.0,74,0.00,,,-99.99,,2013-05-21 10:02:00,
2013-05-21 04:12:00,35.0,28.0,-100.00,West,260,10.0,17.0,74,0.00,,,-99.99,,2013-05-21 10:12:00,
2013-05-21 04:22:00,35.0,28.0,-100.00,WSW,245,12.0,15.0,74,0.00,,,-99.99,,2013-05-21 10:22:00,
2013-05-21 04:32:00,35.0,27.0,-100.00,WSW,240,12.0,15.0,73,0.00,,,-99.99,,2013-05-21 10:32:00,
2013-05-21 04:42:00,34.0,27.0,-100.00,WSW,240,12.0,16.0,74,0.00,,,-99.99,,2013-05-21 10:42:00,
2013-05-21 04:52:00,34.0,27.0,-100.00,WSW,240,10.0,14.0,74,0.00,,,-99.99,,2013-05-21 10:52:00,
2013-05-21 05:02:00,35.0,27.0,-100.00,SW,235,10.0,17.0,72,0.00,,,-99.99,,2013-05-21 11:02:00,
2013-05-21 05:11:00,35.0,27.0,-100.00,WSW,240,10.0,16.0,73,0.00,,,-99.99,,2013-05-21 11:11:00,
2013-05-21 05:21:00,34.0,28.0,-100.00,WSW,240,14.0,18.0,77,0.00,,,-99.99,,2013-05-21 11:21:00,
2013-05-21 05:32:00,34.0,28.0,-100.00,SW,235,14.0,18.0,78,0.00,,,-99.99,,2013-05-21 11:32:00,
2013-05-21 05:41:00,35.0,28.0,-100.00,SW,235,12.0,19.0,76,0.00,,,-99.99,,2013-05-21 11:41:00,
2013-05-21 05:51:00,35.0,28.0,-100.00,WSW,245,12.0,17.0,75,0.00,,,-99.99,,2013-05-21 11:51:00,
2013-05-21 06:01:00,35.0,28.0,-100.00,West,260,12.0,20.0,73,0.00,,,-99.99,,2013-05-21 12:01:00,
2013-05-21 06:11:00,35.0,28.0,-100.00,WSW,250,10.0,16.0,75,0.00,,,-99.99,,2013-05-21 12:11:00,
2013-05-21 06:21:00,35.0,28.0,-100.00,West,265,11.0,17.0,75,0.00,,,-99.99,,2013-05-21 12:21:00,
2013-05-21 06:32:00,34.0,28.0,-100.00,SW,235,10.0,16.0,75,0.00,,,-99.99,,2013-05-21 12:32:00,
2013-05-21 06:41:00,36.0,28.0,-100.00,WSW,240,10.0,17.0,73,0.00,,,-99.99,,2013-05-21 12:41:00,
2013-05-21 06:51:00,36.0,28.0,-100.00,WSW,245,15.0,20.0,72,0.00,,,-99.99,,2013-05-21 12:51:00,
2013-05-21 07:01:00,36.0,28.0,-100.00,WSW,255,12.0,18.0,73,0.00,,,-99.99,,2013-05-21 13:01:00,
2013-05-21 07:12:00,36.0,29.0,-100.00,West,260,13.0,18.0,73,0.00,,,-99.99,,2013-05-21 13:12:00,
2013-05-21 07:22:00,37.0,29.0,-100.00,West,260,12.0,19.0,71,0.00,,,-99.99,,2013-05-21 13:22:00,
2013-05-21 07:32:00,38.0,29.0,-100.00,SW,235,14.0,17.0,70,0.00,,,-99.99,,2013-05-21 13:32:00,
2013-05-21 07:41:00,38.0,29.0,-100.00,WSW,240,15.0,20.0,70,0.00,,,-99.99,,2013-05-21 13:41:00,
2013-05-21 07:52:00,38.0,30.0,-100.00,WSW,240,14.0,19.0,70,0.00,,,-99.99,,2013-05-21 13:52:00,
2013-05-21 08:01:00,39.0,29.0,-100.00,WSW,240,16.0,19.0,69,0.00,,,-99.99,,2013-05-21 14:01:00,
2013-05-21 08:11:00,39.0,30.0,-100.00,WSW,250,13.0,21.0,69,0.00,,,-99.99,,2013-05-21 14:11:00,
2013-05-21 08:21:00,40.0,31.0,-100.00,West,265,11.0,17.0,69,0.00,,,-99.99,,2013-05-21 14:21:00,
2013-05-21 08:32:00,40.0,31.0,-100.00,West,280,14.0,20.0,69,0.00,,,-99.99,,2013-05-21 14:32:00,
2013-05-21 08:41:00,40.0,31.0,-100.00,West,275,12.0,19.0,70,0.00,,,-99.99,,2013-05-21 14:41:00,
2013-05-21 08:51:00,40.0,31.0,-100.00,West,280,14.0,20.0,70,0.00,,,-99.99,,2013-05-21 14:51:00,
2013-05-21 09:01:00,42.0,33.0,-100.00,West,270,10.0,17.0,68,0.00,,,-99.99,,2013-05-21 15:01:00,
2013-05-21 09:11:00,43.0,33.0,-100.00,West,280,11.0,16.0,66,0.00,,,-99.99,,2013-05-21 15:11:00,
2013-05-21 09:21:00,43.0,32.0,-100.00,WNW,285,9.0,16.0,64,0.00,,,-99.99,,2013-05-21 15:21:00,
2013-05-21 09:33:00,44.0,32.0,-100.00,West,265,11.0,16.0,64,0.00,,,-99.99,,2013-05-21 15:33:00,
2013-05-21 09:42:00,44.0,33.0,-100.00,WNW,295,7.0,16.0,64,0.00,,,-99.99,,2013-05-21 15:42:00,
2013-05-21 09:52:00,44.0,32.0,-100.00,SW,235,11.0,17.0,63,0.00,,,-99.99,,2013-05-21 15:52:00,
2013-05-21 10:03:00,43.0,32.0,-100.00,WNW,285,11.0,22.0,64,0.00,,,-99.99,,2013-05-21 16:03:00,
2013-05-21 10:12:00,43.0,31.0,-100.00,West,270,11.0,21.0,64,0.00,,,-99.99,,2013-05-21 16:12:00,
2013-05-21 10:23:00,45.0,33.0,-100.00,West,270,13.0,21.0,62,0.00,,,-99.99,,2013-05-21 16:23:00,
2013-05-21 10:32:00,45.0,32.0,-100.00,West,275,14.0,20.0,60,0.00,,,-99.99,,2013-05-21 16:32:00,
2013-05-21 10:42:00,44.0,32.0,-100.00,West,275,17.0,24.0,61,0.00,,,-99.99,,2013-05-21 16:42:00,
2013-05-21 10:52:00,45.0,33.0,-100.00,WSW,240,15.0,23.0,60,0.00,,,-99.99,,2013-05-21 16:52:00,
2013-05-21 11:02:00,47.0,33.0,-100.00,WSW,240,17.0,26.0,58,0.00,,,-99.99,,2013-05-21 17:02:00,
2013-05-21 11:12:00,45.0,32.0,-100.00,SW,235,23.0,31.0,58,0.00,,,-99.99,,2013-05-21 17:12:00,
2013-05-21 11:23:00,46.0,32.0,-100.00,WSW,240,22.0,30.0,58,0.00,,,-99.99,,2013-05-21 17:23:00,
2013-05-21 11:32:00,45.0,32.0,-100.00,WSW,250,23.0,29.0,59,0.00,,,-99.99,,2013-05-21 17:32:00,
2013-05-21 11:43:00,47.0,33.0,-100.00,West,270,19.0,25.0,57,0.00,,,-99.99,,2013-05-21 17:43:00,
2013-05-21 11:52:00,48.0,33.0,-100.00,West,275,12.0,23.0,55,0.00,,,-99.99,,2013-05-21 17:52:00,
2013-05-21 12:01:00,47.0,33.0,-100.00,WSW,240,15.0,24.0,56,0.00,,,-99.99,,2013-05-21 18:01:00,
2013-05-21 12:12:00,46.0,32.0,-100.00,WSW,240,23.0,27.0,57,0.00,,,-99.99,,2013-05-21 18:12:00,
2013-05-21 12:22:00,46.0,32.0,-100.00,West,265,23.0,28.0,57,0.00,,,-99.99,,2013-05-21 18:22:00,
2013-05-21 12:32:00,47.0,33.0,-100.00,WSW,245,17.0,29.0,57,0.00,,,-99.99,,2013-05-21 18:32:00,
2013-05-21 12:42:00,47.0,33.0,-100.00,West,265,15.0,25.0,56,0.00,,,-99.99,,2013-05-21 18:42:00,
2013-05-21 12:51:00,48.0,33.0,-100.00,WSW,255,16.0,22.0,55,0.00,,,-99.99,,2013-05-21 18:51:00,
2013-05-21 13:01:00,49.0,32.0,-100.00,West,270,17.0,29.0,52,0.00,,,-99.99,,2013-05-21 19:01:00,
2013-05-21 13:11:00,52.0,32.0,-100.00,West,280,16.0,24.0,47,0.00,,,-99.99,,2013-05-21 19:11:00,
2013-05-21 13:21:00,52.0,32.0,-100.00,West,270,19.0,27.0,46,0.00,,,-99.99,,2013-05-21 19:21:00,
2013-05-21 13:32:00,51.0,31.0,-100.00,West,260,14.0,31.0,47,0.00,,,-99.99,,2013-05-21 19:32:00,
2013-05-21 13:41:00,51.0,32.0,-100.00,WSW,240,19.0,27.0,47,0.00,,,-99.99,,2013-05-21 19:41:00,
2013-05-21 13:52:00,53.0,32.0,-100.00,West,280,15.0,25.0,45,0.00,,,-99.99,,2013-05-21 19:52:00,
2013-05-21 14:03:00,52.0,32.0,-100.00,West,265,15.0,26.0,46,0.00,,,-99.99,,2013-05-21 20:03:00,
2013-05-21 14:11:00,53.0,33.0,-100.00,West,265,18.0,29.0,46,0.00,,,-99.99,,2013-05-21 20:11:00,
2013-05-21 14:22:00,51.0,32.0,-100.00,WSW,240,24.0,34.0,47,0.00,,,-99.99,,2013-05-21 20:22:00,
2013-05-21 14:32:00,53.0,33.0,-100.00,West,265,19.0,28.0,45,0.00,,,-99.99,,2013-05-21 20:32:00,
2013-05-21 14:42:00,52.0,32.0,-100.00,WSW,250,18.0,29.0,47,0.00,,,-99.99,,2013-05-21 20:42:00,
2013-05-21 14:52:00,52.0,32.0,-100.00,WSW,240,17.0,26.0,46,0.00,,,-99.99,,2013-05-21 20:52:00,
2013-05-21 15:02:00,52.0,31.0,-100.00,SW,235,22.0,31.0,45,0.00,,,-99.99,,2013-05-21 21:02:00,
2013-05-21 15:11:00,54.0,33.0,-100.00,West,270,19.0,26.0,43,0.00,,,-99.99,,2013-05-21 21:11:00,
2013-05-21 15:21:00,53.0,32.0,-100.00,WSW,240,21.0,28.0,44,0.00,,,-99.99,,2013-05-21 21:21:00,
2013-05-21 15:32:00,52.0,31.0,-100.00,SW,230,17.0,26.0,45,0.00,,,-99.99,,2013-05-21 21:32:00,
2013-05-21 15:43:00,52.0,31.0,-100.00,West,260,17.0,23.0,45,0.00,,,-99.99,,2013-05-21 21:43:00,
2013-05-21 15:53:00,54.0,32.0,-100.00,West,260,19.0,23.0,43,0.00,,,-99.99,,2013-05-21 21:53:00,
2013-05-21 16:02:00,53.0,31.0,-100.00,West,270,14.0,24.0,43,0.00,,,-99.99,,2013-05-21 22:02:00,
2013-05-21 16:12:00,52.0,31.0,-100.00,WSW,240,17.0,26.0,44,0.00,,,-99.99,,2013-05-21 22:12:00,
2013-05-21 16:22:00,52.0,31.0,-100.00,WSW,255,14.0,24.0,43,0.00,,,-99.99,,2013-05-21 22:22:00,
2013-05-21 16:33:00,54.0,32.0,-100.00,West,270,14.0,21.0,43,0.00,,,-99.99,,2013-05-21 22:33:00,
2013-05-21 16:42:00,53.0,32.0,-100.00,West,260,16.0,26.0,43,0.00,,,-99.99,,2013-05-21 22:42:00,
2013-05-21 16:52:00,52.0,31.0,-100.00,West,280,14.0,27.0,43,0.00,,,-99.99,,2013-05-21 22:52:00,
2013-05-21 17:02:00,53.0,31.0,-100.00,SW,225,21.0,29.0,43,0.00,,,-99.99,,2013-05-21 23:02:00,
2013-05-21 17:12:00,52.0,31.0,-100.00,WSW,245,13.0,29.0,43,0.00,,,-99.99,,2013-05-21 23:12:00,
2013-05-21 17:22:00,55.0,32.0,-100.00,West,265,17.0,26.0,41,0.00,,,-99.99,,2013-05-21 23:22:00,
2013-05-21 17:32:00,54.0,32.0,-100.00,West,270,17.0,28.0,41,0.00,,,-99.99,,2013-05-21 23:32:00,
2013-05-21 17:42:00,54.0,31.0,-100.00,SW,235,23.0,32.0,42,0.00,,,-99.99,,2013-05-21 23:42:00,
2013-05-21 17:52:00,53.0,31.0,-100.00,West,265,16.0,23.0,42,0.00,,,-99.99,,2013-05-21 23:52:00,
2013-05-21 18:01:00,54.0,32.0,-100.00,SW,235,16.0,22.0,42,0.00,,,-99.99,,2013-05-22 00:01:00,
2013-05-21 18:11:00,53.0,30.0,-100.00,West,265,15.0,27.0,42,0.00,,,-99.99,,2013-05-22 00:11:00,
2013-05-21 18:21:00,53.0,31.0,-100.00,WSW,255,11.0,21.0,42,0.00,,,-99.99,,2013-05-22 00:21:00,
2013-05-21 18:32:00,53.0,31.0,-100.00,SW,235,17.0,22.0,41,0.00,,,-99.99,,2013-05-22 00:32:00,
2013-05-21 18:41:00,54.0,31.0,-100.00,WSW,240,21.0,28.0,40,0.00,,,-99.99,,2013-05-22 00:41:00,
2013-05-21 18:51:00,54.0,30.0,-100.00,WSW,240,19.0,26.0,40,0.00,,,-99.99,,2013-05-22 00:51:00,
2013-05-21 19:01:00,53.0,30.0,-100.00,West,265,21.0,26.0,40,0.00,,,-99.99,,2013-05-22 01:01:00,
2013-05-21 19:11:00,53.0,30.0,-100.00,West,260,14.0,22.0,41,0.00,,,-99.99,,2013-05-22 01:11:00,
2013-05-21 19:21:00,53.0,31.0,-100.00,West,270,11.0,21.0,41,0.00,,,-99.99,,2013-05-22 01:21:00,
2013-05-21 19:32:00,53.0,30.0,-100.00,WSW,245,14.0,20.0,41,0.00,,,-99.99,,2013-05-22 01:32:00,
2013-05-21 19:41:00,52.0,30.0,-100.00,West,265,11.0,19.0,42,0.00,,,-99.99,,2013-05-22 01:41:00,
2013-05-21 19:52:00,51.0,30.0,-100.00,West,270,7.0,12.0,44,0.00,,,-99.99,,2013-05-22 01:52:00,
2013-05-21 20:01:00,51.0,30.0,-100.00,SW,235,5.0,9.0,45,0.00,,,-99.99,,2013-05-22 02:01:00,
2013-05-21 20:11:00,51.0,30.0,-100.00,SW,235,6.0,9.0,45,0.00,,,-99.99,,2013-05-22 02:11:00,
2013-05-21 20:21:00,50.0,30.0,-100.00,WSW,240,2.0,7.0,46,0.00,,,-99.99,,2013-05-22 02:21:00,
2013-05-21 20:32:00,48.0,30.0,-100.00,NW,310,2.0,4.0,49,0.00,,,-99.99,,2013-05-22 02:32:00,
2013-05-21 20:41:00,47.0,31.0,-100.00,NW,305,3.0,4.0,52,0.00,,,-99.99,,2013-05-22 02:41:00,
2013-05-21 20:51:00,47.0,31.0,-100.00,WNW,285,1.0,4.0,54,0.00,,,-99.99,,2013-05-22 02:51:00,
2013-05-21 21:01:00,47.0,32.0,-100.00,West,265,2.0,4.0,55,0.00,,,-99.99,,2013-05-22 03:01:00,
2013-05-21 21:11:00,47.0,32.0,-100.00,NW,305,7.0,9.0,54,0.00,,,-99.99,,2013-05-22 03:11:00,
2013-05-21 21:21:00,47.0,31.0,-100.00,West,265,4.0,9.0,54,0.00,,,-99.99,,2013-05-22 03:21:00,
2013-05-21 21:33:00,46.0,31.0,-100.00,West,265,4.0,6.0,56,0.00,,,-99.99,,2013-05-22 03:33:00,
2013-05-21 21:43:00,47.0,32.0,-100.00,SW,235,7.0,9.0,55,0.00,,,-99.99,,2013-05-22 03:43:00,
2013-05-21 21:53:00,47.0,32.0,-100.00,West,270,5.0,11.0,56,0.00,,,-99.99,,2013-05-22 03:53:00,
2013-05-21 22:03:00,45.0,32.0,-100.00,West,265,7.0,9.0,60,0.00,,,-99.99,,2013-05-22 04:03:00,
2013-05-21 22:13:00,44.0,33.0,-100.00,WSW,245,6.0,9.0,64,0.00,,,-99.99,,2013-05-22 04:13:00,
2013-05-21 22:22:00,45.0,34.0,-100.00,SW,235,9.0,12.0,63,0.00,,,-99.99,,2013-05-22 04:22:00,
2013-05-21 22:33:00,45.0,34.0,-100.00,SW,235,9.0,11.0,64,0.00,,,-99.99,,2013-05-22 04:33:00,
2013-05-21 22:43:00,45.0,34.0,-100.00,SW,235,7.0,9.0,65,0.00,,,-99.99,,2013-05-22 04:43:00,
2013-05-21 22:52:00,44.0,34.0,-100.00,SW,235,4.0,8.0,67,0.00,,,-99.99,,2013-05-22 04:52:00,
2013-05-21 23:02:00,44.0,34.0,-100.00,SW,235,5.0,7.0,68,0.00,,,-99.99,,2013-05-22 05:02:00,
2013-05-21 23:11:00,44.0,34.0,-100.00,SW,235,6.0,7.0,67,0.00,,,-99.99,,2013-05-22 05:11:00,
2013-05-21 23:21:00,44.0,34.0,-100.00,SW,225,3.0,6.0,68,0.00,,,-99.99,,2013-05-22 05:21:00,
2013-05-21 23:32:00,44.0,35.0,-100.00,SW,235,4.0,7.0,68,0.00,,,-99.99,,2013-05-22 05:32:00,
2013-05-21 23:42:00,44.0,35.0,-100.00,NNE,30,6.0,13.0,70,0.00,,,-99.99,,2013-05-22 05:42:00,
2013-05-21 23:51:00,41.0,35.0,-100.00,NE,40,9.0,12.0,78,0.00,,,-99.99,,2013-05-22 05:51:00,